Time,TemperatureF,DewpointF,PressureIn,WindDirection,WindDirectionDegrees,WindSpeedMPH,WindSpeedGustMPH,Humidity,HourlyPrecipIn,Conditions,Clouds,dailyrainin,SoftwareType,DateUTC
2013-08-29 00:09:00,68.4,50.1,30.18,ESE,112,3.7,-999.0,52,-99.99,,,0.00,Acu-Link.com,2013-08-29 06:09:00,
2013-08-29 00:24:00,65.5,50.3,30.18,ENE,67,5.8,-999.0,58,-99.99,,,0.00,Acu-Link.com,2013-08-29 06:24:00,
2013-08-29 00:39:00,64.6,50.4,30.19,ENE,67,5.8,-999.0,60,-99.99,,,0.00,Acu-Link.com,2013-08-29 06:39:00,
2013-08-29 00:54:00,67.3,50.1,30.18,ESE,112,2.7,-999.0,54,-99.99,,,0.00,Acu-Link.com,2013-08-29 06:54:00,
2013-08-29 01:09:00,67.5,49.2,30.19,East,90,3.7,-999.0,52,-99.99,,,0.00,Acu-Link.com,2013-08-29 07:09:00,
2013-08-29 01:24:00,65.7,49.1,30.18,ENE,67,3.7,-999.0,55,-99.99,,,0.00,Acu-Link.com,2013-08-29 07:24:00,
2013-08-29 01:39:00,65.5,48.9,30.18,ENE,67,4.7,-999.0,55,-99.99,,,0.00,Acu-Link.com,2013-08-29 07:39:00,
2013-08-29 01:54:00,64.4,48.8,30.18,NE,45,4.2,-999.0,57,-99.99,,,0.00,Acu-Link.com,2013-08-29 07:54:00,
2013-08-29 02:10:00,65.1,49.0,30.19,NE,45,3.7,-999.0,56,-99.99,,,0.00,Acu-Link.com,2013-08-29 08:10:00,
2013-08-29 02:25:00,65.1,49.0,30.18,ENE,67,3.7,-999.0,56,-99.99,,,0.00,Acu-Link.com,2013-08-29 08:25:00,
2013-08-29 02:40:00,63.7,48.6,30.19,ENE,67,4.2,-999.0,58,-99.99,,,0.00,Acu-Link.com,2013-08-29 08:40:00,
2013-08-29 02:55:00,64.4,47.9,30.19,ENE,67,4.2,-999.0,55,-99.99,,,0.00,Acu-Link.com,2013-08-29 08:55:00,
2013-08-29 03:11:00,63.0,48.0,30.20,NE,45,4.7,-999.0,58,-99.99,,,0.00,Acu-Link.com,2013-08-29 09:11:00,
2013-08-29 03:26:00,63.0,47.5,30.20,ESE,112,8.9,-999.0,57,-99.99,,,0.00,Acu-Link.com,2013-08-29 09:26:00,
2013-08-29 03:41:00,60.3,48.5,30.19,ENE,67,5.8,-999.0,65,-99.99,,,0.00,Acu-Link.com,2013-08-29 09:41:00,
2013-08-29 03:56:00,59.7,48.3,30.18,ENE,67,4.7,-999.0,66,-99.99,,,0.00,Acu-Link.com,2013-08-29 09:56:00,
2013-08-29 04:11:00,61.0,48.3,30.19,ENE,67,5.8,-999.0,63,-99.99,,,0.00,Acu-Link.com,2013-08-29 10:11:00,
2013-08-29 04:26:00,61.5,47.9,30.19,East,90,6.8,-999.0,61,-99.99,,,0.00,Acu-Link.com,2013-08-29 10:26:00,
2013-08-29 04:41:00,62.2,46.8,30.19,NE,45,7.3,-999.0,57,-99.99,,,0.00,Acu-Link.com,2013-08-29 10:41:00,
2013-08-29 04:57:00,62.1,46.2,30.18,ENE,67,8.3,-999.0,56,-99.99,,,0.00,Acu-Link.com,2013-08-29 10:57:00,
2013-08-29 05:12:00,62.1,46.2,30.17,ESE,112,8.9,-999.0,56,-99.99,,,0.00,Acu-Link.com,2013-08-29 11:12:00,
2013-08-29 05:27:00,62.2,46.3,30.19,NE,45,10.4,-999.0,56,-99.99,,,0.00,Acu-Link.com,2013-08-29 11:27:00,
2013-08-29 05:42:00,61.5,46.1,30.18,ENE,67,7.8,-999.0,57,-99.99,,,0.00,Acu-Link.com,2013-08-29 11:42:00,
2013-08-29 05:57:00,59.0,46.4,30.20,East,90,4.7,-999.0,63,-99.99,,,0.00,Acu-Link.com,2013-08-29 11:57:00,
2013-08-29 06:12:00,60.6,46.6,30.21,ENE,67,4.2,-999.0,60,-99.99,,,0.00,Acu-Link.com,2013-08-29 12:12:00,
2013-08-29 06:27:00,60.8,46.4,30.21,East,90,3.7,-999.0,59,-99.99,,,0.00,Acu-Link.com,2013-08-29 12:27:00,
2013-08-29 06:42:00,59.9,47.3,30.22,East,90,4.7,-999.0,63,-99.99,,,0.00,Acu-Link.com,2013-08-29 12:42:00,
2013-08-29 06:57:00,61.0,46.6,30.23,ENE,67,4.7,-999.0,59,-99.99,,,0.00,Acu-Link.com,2013-08-29 12:57:00,
2013-08-29 07:12:00,61.0,47.0,30.22,ESE,112,3.7,-999.0,60,-99.99,,,0.00,Acu-Link.com,2013-08-29 13:12:00,
2013-08-29 07:28:00,61.0,48.3,30.24,East,90,2.7,-999.0,63,-99.99,,,0.00,Acu-Link.com,2013-08-29 13:28:00,
2013-08-29 07:43:00,64.2,48.6,30.24,ENE,67,3.2,-999.0,57,-99.99,,,0.00,Acu-Link.com,2013-08-29 13:43:00,
2013-08-29 07:58:00,65.8,49.7,30.24,NNE,22,4.2,-999.0,56,-99.99,,,0.00,Acu-Link.com,2013-08-29 13:58:00,
2013-08-29 08:13:00,65.7,49.1,30.25,WNW,292,4.2,-999.0,55,-99.99,,,0.00,Acu-Link.com,2013-08-29 14:13:00,
2013-08-29 08:28:00,66.4,49.7,30.25,NW,315,6.8,-999.0,55,-99.99,,,0.00,Acu-Link.com,2013-08-29 14:28:00,
2013-08-29 08:43:00,67.3,50.1,30.25,WNW,292,4.7,-999.0,54,-99.99,,,0.00,Acu-Link.com,2013-08-29 14:43:00,
2013-08-29 08:58:00,68.4,49.0,30.27,WNW,292,3.7,-999.0,50,-99.99,,,0.00,Acu-Link.com,2013-08-29 14:58:00,
2013-08-29 09:13:00,69.4,49.4,30.26,West,270,4.7,-999.0,49,-99.99,,,0.00,Acu-Link.com,2013-08-29 15:13:00,
2013-08-29 09:29:00,70.9,49.7,30.27,West,270,3.2,-999.0,47,-99.99,,,0.00,Acu-Link.com,2013-08-29 15:29:00,
2013-08-29 09:44:00,73.4,51.9,30.24,NNW,337,3.7,-999.0,47,-99.99,,,0.00,Acu-Link.com,2013-08-29 15:44:00,
2013-08-29 09:59:00,72.7,51.9,30.27,WNW,292,5.3,-999.0,48,-99.99,,,0.00,Acu-Link.com,2013-08-29 15:59:00,
2013-08-29 10:14:00,75.0,52.8,30.25,WSW,247,3.7,-999.0,46,-99.99,,,0.00,Acu-Link.com,2013-08-29 16:14:00,
2013-08-29 10:29:00,77.4,54.4,30.26,South,180,2.7,-999.0,45,-99.99,,,0.00,Acu-Link.com,2013-08-29 16:29:00,
2013-08-29 10:45:00,79.7,53.2,30.27,South,180,2.2,-999.0,40,-99.99,,,0.00,Acu-Link.com,2013-08-29 16:45:00,
2013-08-29 11:00:00,77.9,52.9,30.26,West,270,4.7,-999.0,42,-99.99,,,0.00,Acu-Link.com,2013-08-29 17:00:00,
2013-08-29 11:15:00,78.6,52.2,30.26,West,270,5.8,-999.0,40,-99.99,,,0.00,Acu-Link.com,2013-08-29 17:15:00,
2013-08-29 11:30:00,79.2,51.4,30.26,West,270,1.7,-999.0,38,-99.99,,,0.00,Acu-Link.com,2013-08-29 17:30:00,
2013-08-29 11:45:00,81.0,51.5,30.25,SW,225,3.7,-999.0,36,-99.99,,,0.00,Acu-Link.com,2013-08-29 17:45:00,
2013-08-29 12:00:00,80.6,51.2,30.24,NW,315,1.7,-999.0,36,-99.99,,,0.00,Acu-Link.com,2013-08-29 18:00:00,
2013-08-29 12:15:00,81.1,51.6,30.24,West,270,4.2,-999.0,36,-99.99,,,0.00,Acu-Link.com,2013-08-29 18:15:00,
2013-08-29 12:31:00,83.8,54.7,30.24,WNW,292,2.7,-999.0,37,-99.99,,,0.00,Acu-Link.com,2013-08-29 18:31:00,
2013-08-29 12:46:00,86.2,53.7,30.22,SW,225,4.7,-999.0,33,-99.99,,,0.00,Acu-Link.com,2013-08-29 18:46:00,
2013-08-29 13:01:00,83.1,51.0,30.22,WNW,292,5.3,-999.0,33,-99.99,,,0.00,Acu-Link.com,2013-08-29 19:01:00,
2013-08-29 13:16:00,85.8,52.5,30.21,WSW,247,4.2,-999.0,32,-99.99,,,0.00,Acu-Link.com,2013-08-29 19:16:00,
2013-08-29 13:31:00,87.3,53.8,30.20,WSW,247,6.3,-999.0,32,-99.99,,,0.00,Acu-Link.com,2013-08-29 19:31:00,
2013-08-29 13:46:00,87.8,52.5,30.20,West,270,7.3,-999.0,30,-99.99,,,0.00,Acu-Link.com,2013-08-29 19:46:00,
2013-08-29 14:01:00,88.0,54.4,30.19,SW,225,8.3,-999.0,32,-99.99,,,0.00,Acu-Link.com,2013-08-29 20:01:00,
2013-08-29 14:16:00,88.2,52.8,30.20,SW,225,6.3,-999.0,30,-99.99,,,0.00,Acu-Link.com,2013-08-29 20:16:00,
2013-08-29 14:31:00,89.2,53.7,30.19,West,270,4.7,-999.0,30,-99.99,,,0.00,Acu-Link.com,2013-08-29 20:31:00,
2013-08-29 14:46:00,89.2,51.8,30.18,WSW,247,10.4,-999.0,28,-99.99,,,0.00,Acu-Link.com,2013-08-29 20:46:00,
2013-08-29 15:01:00,89.4,52.9,30.17,SSW,202,7.3,-999.0,29,-99.99,,,0.00,Acu-Link.com,2013-08-29 21:01:00,
2013-08-29 15:21:00,90.7,52.1,30.17,West,270,9.4,-999.0,27,-99.99,,,0.00,Acu-Link.com,2013-08-29 21:21:00,
2013-08-29 15:36:00,86.4,53.0,30.16,WSW,247,10.4,-999.0,32,-99.99,,,0.00,Acu-Link.com,2013-08-29 21:36:00,
2013-08-29 15:51:00,90.0,53.4,30.15,WSW,247,9.4,-999.0,29,-99.99,,,0.00,Acu-Link.com,2013-08-29 21:51:00,
2013-08-29 16:06:00,90.1,52.6,30.16,NW,315,3.7,-999.0,28,-99.99,,,0.00,Acu-Link.com,2013-08-29 22:06:00,
2013-08-29 16:21:00,90.0,50.5,30.15,WSW,247,11.9,-999.0,26,-99.99,,,0.00,Acu-Link.com,2013-08-29 22:21:00,
2013-08-29 16:36:00,88.9,49.5,30.16,SSW,202,7.8,-999.0,26,-99.99,,,0.00,Acu-Link.com,2013-08-29 22:36:00,
2013-08-29 16:51:00,89.1,49.7,30.15,SSW,202,8.3,-999.0,26,-99.99,,,0.00,Acu-Link.com,2013-08-29 22:51:00,
2013-08-29 17:06:00,87.6,49.5,30.16,WSW,247,7.3,-999.0,27,-99.99,,,0.00,Acu-Link.com,2013-08-29 23:06:00,
2013-08-29 17:21:00,87.4,48.3,30.16,West,270,6.3,-999.0,26,-99.99,,,0.00,Acu-Link.com,2013-08-29 23:21:00,
2013-08-29 17:36:00,83.8,46.2,30.17,SSW,202,8.3,-999.0,27,-99.99,,,0.00,Acu-Link.com,2013-08-29 23:36:00,
2013-08-29 17:51:00,83.7,46.1,30.16,West,270,9.9,-999.0,27,-99.99,,,0.00,Acu-Link.com,2013-08-29 23:51:00,
2013-08-29 18:06:00,84.4,48.6,30.16,SSW,202,5.8,-999.0,29,-99.99,,,0.00,Acu-Link.com,2013-08-30 00:06:00,
2013-08-29 18:22:00,83.7,53.1,30.17,SSW,202,8.9,-999.0,35,-99.99,,,0.00,Acu-Link.com,2013-08-30 00:22:00,
2013-08-29 18:37:00,82.4,52.0,30.17,South,180,11.4,-999.0,35,-99.99,,,0.00,Acu-Link.com,2013-08-30 00:37:00,
2013-08-29 18:52:00,80.2,50.8,30.17,SSW,202,10.9,-999.0,36,-99.99,,,0.00,Acu-Link.com,2013-08-30 00:52:00,
2013-08-29 19:07:00,78.8,50.3,30.18,SSW,202,8.9,-999.0,37,-99.99,,,0.00,Acu-Link.com,2013-08-30 01:07:00,
2013-08-29 19:22:00,76.8,50.6,30.20,WSW,247,7.8,-999.0,40,-99.99,,,0.00,Acu-Link.com,2013-08-30 01:22:00,
2013-08-29 19:37:00,75.4,50.0,30.21,SW,225,6.3,-999.0,41,-99.99,,,0.00,Acu-Link.com,2013-08-30 01:37:00,
2013-08-29 19:52:00,74.7,50.1,30.20,WSW,247,4.7,-999.0,42,-99.99,,,0.00,Acu-Link.com,2013-08-30 01:52:00,
2013-08-29 20:07:00,73.8,49.9,30.18,WNW,292,1.1,-999.0,43,-99.99,,,0.00,Acu-Link.com,2013-08-30 02:07:00,
2013-08-29 20:22:00,71.8,49.9,30.21,ENE,67,4.7,-999.0,46,-99.99,,,0.00,Acu-Link.com,2013-08-30 02:22:00,
2013-08-29 20:38:00,68.2,50.4,30.22,East,90,5.3,-999.0,53,-99.99,,,0.00,Acu-Link.com,2013-08-30 02:38:00,
2013-08-29 20:53:00,68.4,51.1,30.20,East,90,4.7,-999.0,54,-99.99,,,0.00,Acu-Link.com,2013-08-30 02:53:00,
2013-08-29 21:08:00,69.3,51.4,30.21,ENE,67,4.7,-999.0,53,-99.99,,,0.00,Acu-Link.com,2013-08-30 03:08:00,
2013-08-29 21:23:00,68.9,50.5,30.23,East,90,7.8,-999.0,52,-99.99,,,0.00,Acu-Link.com,2013-08-30 03:23:00,
2013-08-29 21:38:00,68.4,50.6,30.20,ENE,67,6.8,-999.0,53,-99.99,,,0.00,Acu-Link.com,2013-08-30 03:38:00,
2013-08-29 21:53:00,69.8,50.8,30.21,East,90,5.3,-999.0,51,-99.99,,,0.00,Acu-Link.com,2013-08-30 03:53:00,
2013-08-29 22:08:00,70.3,50.8,30.23,ENE,67,5.3,-999.0,50,-99.99,,,0.00,Acu-Link.com,2013-08-30 04:08:00,
2013-08-29 22:23:00,71.1,51.0,30.22,ENE,67,6.3,-999.0,49,-99.99,,,0.00,Acu-Link.com,2013-08-30 04:23:00,
2013-08-29 22:39:00,71.2,50.5,30.21,ENE,67,5.8,-999.0,48,-99.99,,,0.00,Acu-Link.com,2013-08-30 04:39:00,
2013-08-29 22:54:00,71.8,50.5,30.20,ENE,67,4.7,-999.0,47,-99.99,,,0.00,Acu-Link.com,2013-08-30 04:54:00,
2013-08-29 23:09:00,71.1,50.4,30.24,ENE,67,6.3,-999.0,48,-99.99,,,0.00,Acu-Link.com,2013-08-30 05:09:00,
2013-08-29 23:24:00,71.2,49.9,30.21,NE,45,8.3,-999.0,47,-99.99,,,0.00,Acu-Link.com,2013-08-30 05:24:00,
2013-08-29 23:39:00,70.7,50.6,30.21,ESE,112,3.2,-999.0,49,-99.99,,,0.00,Acu-Link.com,2013-08-30 05:39:00,
2013-08-29 23:55:00,70.0,50.5,30.22,ESE,112,4.2,-999.0,50,-99.99,,,0.00,Acu-Link.com,2013-08-30 05:55:00,